EW9763 Weather Reports


Display with metric or nautical units.
time (UTC)temp
F
wind
direction
speed
MPH
gust
MPH
rain 1hr
in
rain 24hr
in
rain mn
in
humidity
%
barometer
mb
20260507093429 38 276 1.0 3.0 0.00 0.00 0.00 69 1012.7
20260507092929 38 260 1.0 3.0 0.00 0.00 0.00 69 1012.8
20260507092428 38 270 1.0 4.0 0.00 0.00 0.00 69 1012.8
20260507091925 38 288 1.0 4.0 0.00 0.00 0.00 69 1012.8
20260507091422 38 309 1.0 4.0 0.00 0.00 0.00 69 1012.9
20260507090922 38 255 2.0 6.0 0.00 0.00 0.00 68 1012.9
20260507090423 38 261 2.0 6.0 0.00 0.00 0.00 69 1012.9
20260507085923 38 247 2.0 4.0 0.00 0.00 0.00 69 1012.9
20260507085418 38 271 2.0 4.0 0.00 0.00 0.00 69 1012.9
20260507084918 38 284 1.0 6.0 0.00 0.00 0.00 69 1012.9
20260507084418 38 217 2.0 6.0 0.00 0.00 0.00 69 1012.9
20260507083918 38 275 2.0 8.0 0.00 0.00 0.00 70 1012.9
20260507083419 38 276 2.0 8.0 0.00 0.00 0.00 70 1012.9
20260507083149 38 262 2.0 4.0 0.00 0.00 0.00 70 1012.9
20260507082419 38 269 1.0 4.0 0.00 0.00 0.00 71 1013.0
20260507081916 37 277 1.0 4.0 0.00 0.00 0.00 71 1013.0
20260507081646 37 257 1.0 2.0 0.00 0.00 0.00 71 1012.9
20260507080916 37 248 1.0 3.0 0.00 0.00 0.00 72 1012.9
20260507080415 37 248 1.0 3.0 0.00 0.00 0.00 72 1012.9
20260507075912 36 293 0.0 2.0 0.00 0.00 0.00 72 1012.9
20260507075413 36 293 0.0 1.0 0.00 0.00 0.00 72 1012.9
20260507074908 37 292 0.0 1.0 0.00 0.00 0.00 72 1012.9
20260507074408 37 292 0.0 1.0 0.00 0.00 0.00 72 1012.9
20260507073911 37 292 0.0 1.0 0.00 0.00 0.00 72 1012.9
20260507073408 37 292 0.0 1.0 0.00 0.00 0.00 73 1012.9
20260507072906 37 292 0.0 1.0 0.00 0.00 0.00 73 1012.9
20260507072407 37 292 0.0 1.0 0.00 0.00 0.00 74 1012.9
20260507071903 38 292 0.0 0.0 0.00 0.00 0.00 74 1013.0
20260507071634 37 292 0.0 0.0 0.00 0.00 0.00 73 1013.1
20260507070902 37 292 0.0 0.0 0.00 0.00 0.00 71 1013.1
20260507070402 37 291 0.0 0.0 0.00 0.00 0.00 70 1013.2
20260507065900 37 291 0.0 1.0 0.00 0.00 0.00 70 1013.3
20260507065630 37 291 0.0 1.0 0.00 0.00 0.00 70 1013.3
20260507065125 37 291 0.0 0.0 0.00 0.00 0.00 69 1013.4
20260507064624 38 290 0.0 2.0 0.00 0.00 0.00 68 1013.4
20260507063854 38 290 0.0 2.0 0.00 0.00 0.00 69 1013.5
20260507063354 38 301 0.0 1.0 0.00 0.00 0.00 69 1013.5
20260507062854 38 301 0.0 1.0 0.00 0.00 0.00 68 1013.6
20260507062627 38 301 0.0 1.0 0.00 0.00 0.00 68 1013.7
20260507062123 39 301 0.0 2.0 0.00 0.00 0.00 67 1013.7
20260507061350 39 301 1.0 2.0 0.00 0.00 0.00 67 1013.7
20260507060848 39 301 1.0 3.0 0.00 0.00 0.00 66 1013.7
20260507060348 39 300 1.0 3.0 0.00 0.00 0.00 66 1013.7
20260507055848 39 300 0.0 3.0 0.00 0.00 0.00 66 1013.8
20260507055348 39 278 0.0 3.0 0.00 0.00 0.00 66 1013.8
20260507054843 39 247 0.0 3.0 0.00 0.00 0.00 66 1013.8
20260507054612 39 319 0.0 0.0 0.00 0.00 0.00 66 1013.9
20260507053840 39 319 0.0 0.0 0.00 0.00 0.00 66 1013.9
20260507053341 39 319 0.0 0.0 0.00 0.00 0.00 66 1013.9
20260507052840 39 321 0.0 0.0 0.00 0.00 0.00 66 1014.1
20260507052340 39 321 0.0 0.0 0.00 0.00 0.00 66 1014.1
20260507051836 39 321 0.0 2.0 0.00 0.00 0.00 66 1014.1
20260507051336 39 321 0.0 2.0 0.00 0.00 0.00 67 1014.1
20260507050832 39 321 0.0 2.0 0.00 0.00 0.00 68 1014.2
20260507050332 39 321 1.0 3.0 0.00 0.00 0.00 68 1014.2
20260507045832 39 322 2.0 3.0 0.00 0.00 0.00 68 1014.2
20260507045333 39 321 2.0 3.0 0.00 0.00 0.00 67 1014.2
20260507044830 40 321 1.0 3.0 0.00 0.00 0.00 67 1014.2
20260507044329 40 322 1.0 2.0 0.00 0.00 0.00 67 1014.2
20260507043829 40 321 0.0 2.0 0.00 0.00 0.00 67 1014.2
20260507043559 40 321 0.0 2.0 0.00 0.00 0.00 68 1014.2
20260507043056 40 321 1.0 3.0 0.00 0.00 0.00 68 1014.2
20260507042328 40 321 2.0 3.0 0.00 0.00 0.00 68 1014.1
20260507041823 40 322 2.0 3.0 0.00 0.00 0.00 68 1014.1
20260507041322 40 322 2.0 3.0 0.00 0.00 0.00 68 1014.0
20260507040821 40 325 2.0 3.0 0.00 0.00 0.00 68 1014.0
20260507040320 40 325 2.0 3.0 0.00 0.00 0.00 68 1014.0
20260507035818 40 322 2.0 3.0 0.00 0.00 0.00 68 1014.0
20260507035549 40 328 2.0 3.0 0.00 0.00 0.00 67 1013.9
20260507034815 40 329 2.0 4.0 0.00 0.00 0.00 67 1014.0
20260507034314 41 329 2.0 4.0 0.00 0.00 0.00 67 1014.0
20260507033816 41 333 2.0 4.0 0.00 0.00 0.00 66 1013.9
20260507033314 41 334 2.0 4.0 0.00 0.00 0.00 66 1013.9
20260507032813 41 320 3.0 4.0 0.00 0.00 0.00 66 1013.9
20260507032312 41 316 3.0 8.0 0.00 0.00 0.00 65 1013.8
20260507031813 42 326 3.0 8.0 0.00 0.00 0.00 65 1013.8
20260507031311 42 313 3.0 8.0 0.00 0.00 0.00 65 1013.8
20260507030810 42 298 4.0 8.0 0.00 0.00 0.00 64 1013.8
20260507030311 42 305 4.0 9.0 0.00 0.00 0.00 63 1013.8
20260507030042 42 297 4.0 9.0 0.00 0.00 0.00 63 1013.8
20260507025314 43 306 4.0 9.0 0.00 0.00 0.00 62 1013.9
20260507024811 43 293 4.0 9.0 0.00 0.00 0.00 61 1013.8
20260507024312 44 304 4.0 10.0 0.00 0.00 0.00 60 1013.8
20260507023804 44 320 4.0 12.0 0.00 0.00 0.00 59 1013.8
20260507023305 44 300 4.0 12.0 0.00 0.00 0.00 58 1013.7
20260507022804 44 293 5.0 13.0 0.00 0.00 0.00 58 1013.7
20260507022535 44 305 6.0 13.0 0.00 0.00 0.00 57 1013.6
20260507022035 45 313 6.0 15.0 0.00 0.00 0.00 57 1013.6
20260507021306 45 326 6.0 15.0 0.00 0.00 0.00 56 1013.5
20260507020759 45 287 7.0 14.0 0.00 0.00 0.00 56 1013.4
20260507020305 45 304 7.0 16.0 0.00 0.00 0.00 55 1013.5
20260507015805 45 265 6.0 16.0 0.00 0.00 0.00 55 1013.4
20260507015310 45 303 6.0 14.0 0.00 0.00 0.00 55 1013.3
20260507014800 45 298 7.0 14.0 0.00 0.00 0.00 54 1013.3
20260507014306 46 315 7.0 16.0 0.00 0.00 0.00 54 1013.2
20260507013802 46 313 7.0 16.0 0.00 0.00 0.00 54 1013.1
20260507013255 46 298 7.0 14.0 0.00 0.00 0.00 54 1013.0
20260507013033 46 296 6.0 14.0 0.00 0.00 0.00 54 1013.1
20260507012257 46 284 5.0 13.0 0.00 0.00 0.00 54 1013.0
20260507011756 46 304 6.0 13.0 0.00 0.00 0.00 53 1013.0
20260507011303 46 304 5.0 11.0 0.00 0.00 0.00 53 1013.0
20260507010751 46 309 6.0 13.0 0.00 0.00 0.00 52 1012.9
20260507010252 47 311 7.0 13.0 0.00 0.00 0.00 52 1012.9
20260507005753 46 289 6.0 14.0 0.00 0.00 0.00 52 1012.9
20260507005252 47 294 5.0 14.0 0.00 0.00 0.00 53 1012.8
20260507004752 47 300 4.0 9.0 0.00 0.00 0.00 54 1012.8
20260507004253 47 285 4.0 10.0 0.00 0.00 0.00 53 1012.8
20260507003750 47 311 5.0 11.0 0.00 0.00 0.00 53 1012.7
20260507003249 47 293 6.0 11.0 0.00 0.00 0.00 52 1012.7
20260507002754 47 296 7.0 14.0 0.00 0.00 0.00 53 1012.7
20260507002519 47 303 8.0 15.0 0.00 0.00 0.00 52 1012.7
20260507001748 48 309 8.0 15.0 0.00 0.00 0.00 51 1012.6
20260507001259 49 290 9.0 20.0 0.00 0.00 0.00 49 1012.5
20260507001249 49 286 9.0 16.0 0.00 0.00 0.00 50 1012.5
20260507000243 49 298 9.0 20.0 0.00 0.00 0.00 49 1012.4
20260506235743 49 298 8.0 15.0 0.00 0.00 0.00 49 1012.4
20260506235244 50 288 9.0 17.0 0.00 0.00 0.00 48 1012.4
20260506235239 49 307 8.0 17.0 0.00 0.00 0.00 47 1012.4
20260506234242 50 284 10.0 17.0 0.00 0.00 0.00 48 1012.4
20260506233736 50 290 10.0 18.0 0.00 0.00 0.00 48 1012.3
20260506233237 50 310 10.0 18.0 0.00 0.00 0.00 46 1012.3
20260506232735 51 301 10.0 18.0 0.00 0.00 0.00 46 1012.2
20260506232237 51 263 8.0 17.0 0.00 0.00 0.00 46 1012.2
20260506232012 51 313 7.0 18.0 0.00 0.00 0.00 47 1012.2
20260506231237 50 290 6.0 18.0 0.00 0.00 0.00 47 1012.2
20260506230736 51 269 7.0 16.0 0.00 0.00 0.00 47 1012.2
20260506225730 51 289 7.0 14.0 0.00 0.00 0.00 45 1012.1
20260506225236 51 284 7.0 14.0 0.00 0.00 0.00 48 1012.1
20260506224731 51 321 6.0 14.0 0.00 0.00 0.00 46 1012.1
20260506224506 51 294 6.0 13.0 0.00 0.00 0.00 45 1012.0
20260506223736 51 290 7.0 18.0 0.00 0.00 0.00 45 1012.1
20260506223229 52 292 9.0 18.0 0.00 0.00 0.00 45 1012.1
20260506222731 51 286 9.0 18.0 0.00 0.00 0.00 49 1012.0
20260506222222 51 285 8.0 18.0 0.00 0.00 0.00 47 1012.0
20260506221722 51 308 8.0 16.0 0.00 0.00 0.00 45 1012.0
20260506221222 51 298 10.0 17.0 0.00 0.00 0.00 45 1012.0
20260506220725 51 308 9.0 18.0 0.00 0.00 0.00 46 1011.9
20260506220721 51 308 10.0 17.0 0.00 0.00 0.00 45 1011.9
20260506215720 51 312 8.0 18.0 0.00 0.00 0.00 47 1012.0
20260506215213 52 276 8.0 15.0 0.00 0.00 0.00 46 1011.9
20260506214945 52 293 8.0 16.0 0.00 0.00 0.00 45 1011.9
20260506214219 51 313 7.0 15.0 0.00 0.00 0.00 44 1011.8
20260506214215 52 326 7.0 16.0 0.00 0.00 0.00 47 1011.9
20260506213216 52 273 6.0 17.0 0.00 0.00 0.00 43 1011.8
20260506212713 52 292 6.0 17.0 0.00 0.00 0.00 44 1011.8
20260506212214 52 274 7.0 15.0 0.00 0.00 0.00 44 1011.9
20260506211712 52 300 6.0 14.0 0.00 0.00 0.00 46 1011.8
20260506211213 51 282 7.0 16.0 0.00 0.00 0.00 47 1011.9
20260506210712 52 298 6.0 16.0 0.00 0.00 0.00 46 1011.9
20260506210212 52 311 5.0 11.0 0.00 0.00 0.00 47 1011.9
20260506205712 52 295 6.0 13.0 0.00 0.00 0.00 45 1011.9
20260506205443 53 294 7.0 15.0 0.00 0.00 0.00 45 1011.9
20260506204713 53 255 6.0 15.0 0.00 0.00 0.00 44 1011.9
20260506204207 52 271 5.0 12.0 0.00 0.00 0.00 48 1011.9
20260506203713 52 276 6.0 12.0 0.00 0.00 0.00 46 1011.9
20260506203206 51 314 7.0 14.0 0.00 0.00 0.00 46 1012.0
20260506202707 51 257 7.0 14.0 0.00 0.00 0.00 46 1012.0
20260506202207 52 277 6.0 16.0 0.00 0.00 0.00 48 1012.1
20260506201706 51 298 6.0 16.0 0.00 0.00 0.00 47 1012.0
20260506201201 51 290 6.0 13.0 0.00 0.00 0.00 48 1012.1
20260506200701 51 280 6.0 13.0 0.00 0.00 0.00 50 1012.1
20260506200200 51 281 6.0 14.0 0.00 0.00 0.00 49 1012.1
20260506195700 51 291 8.0 14.0 0.00 0.00 0.00 49 1012.2
20260506195200 51 266 6.0 13.0 0.00 0.00 0.00 50 1012.2
20260506194700 52 251 7.0 13.0 0.00 0.00 0.00 47 1012.1
20260506194157 52 310 7.0 17.0 0.00 0.00 0.00 49 1012.1
20260506193653 51 308 7.0 17.0 0.00 0.00 0.00 51 1012.1
20260506193159 51 281 7.0 13.0 0.00 0.00 0.00 50 1012.1
20260506193153 51 298 7.0 13.0 0.00 0.00 0.00 50 1012.1
20260506192153 51 331 7.0 13.0 0.00 0.00 0.00 50 1012.2
20260506191654 51 298 7.0 13.0 0.00 0.00 0.00 49 1012.2
20260506191149 51 304 6.0 13.0 0.00 0.00 0.00 50 1012.2
20260506190647 51 293 7.0 13.0 0.00 0.00 0.00 50 1012.2
20260506190148 51 311 7.0 14.0 0.00 0.00 0.00 51 1012.3
20260506185653 50 298 6.0 11.0 0.00 0.00 0.00 50 1012.3
20260506185649 50 294 7.0 14.0 0.00 0.00 0.00 50 1012.3
20260506184648 51 339 5.0 11.0 0.00 0.00 0.00 52 1012.3
20260506184146 51 294 5.0 11.0 0.00 0.00 0.00 50 1012.3
20260506183643 50 331 4.0 11.0 0.00 0.00 0.00 51 1012.2
20260506183144 50 247 6.0 14.0 0.00 0.00 0.00 49 1012.2
20260506182643 50 269 5.0 14.0 0.00 0.00 0.00 51 1012.3
20260506182141 50 314 7.0 15.0 0.00 0.00 0.00 50 1012.3
20260506181643 50 299 6.0 15.0 0.00 0.00 0.00 49 1012.4
20260506181136 51 289 5.0 10.0 0.00 0.00 0.00 50 1012.3
20260506180635 50 272 7.0 15.0 0.00 0.00 0.00 51 1012.4
20260506180135 50 307 6.0 15.0 0.00 0.00 0.00 53 1012.4
20260506175636 50 284 5.0 15.0 0.00 0.00 0.00 51 1012.5
20260506175135 50 236 6.0 11.0 0.00 0.00 0.00 51 1012.5
20260506174636 49 279 6.0 14.0 0.00 0.00 0.00 50 1012.6
20260506174130 49 294 7.0 14.0 0.00 0.00 0.00 53 1012.5
20260506173630 49 300 7.0 12.0 0.00 0.00 0.00 52 1012.5
20260506173129 49 355 8.0 16.0 0.00 0.00 0.00 51 1012.6
20260506172901 50 312 8.0 16.0 0.00 0.00 0.00 52 1012.6
20260506172744 51 291 5.0 11.0 0.00 0.00 0.00 50 1012.7
20260506171631 51 296 4.0 10.0 0.00 0.00 0.00 53 1012.8
20260506171124 51 261 5.0 11.0 0.00 0.00 0.00 52 1012.8
20260506170623 50 275 4.0 11.0 0.00 0.00 0.00 53 1012.8
20260506170123 49 297 4.0 10.0 0.00 0.00 0.00 53 1012.8
20260506165623 49 312 5.0 15.0 0.00 0.00 0.00 54 1012.9
20260506165124 49 279 4.0 15.0 0.00 0.00 0.00 53 1012.9
20260506164624 48 234 4.0 10.0 0.00 0.00 0.00 56 1012.9
20260506164119 49 269 5.0 12.0 0.00 0.00 0.00 55 1012.9
20260506163849 48 315 6.0 14.0 0.00 0.00 0.00 58 1012.9
20260506163117 48 275 8.0 14.0 0.00 0.00 0.00 55 1012.9
20260506162617 48 290 6.0 14.0 0.00 0.00 0.00 57 1012.8
20260506162118 49 333 5.0 13.0 0.00 0.00 0.00 55 1012.9
20260506161848 49 309 4.0 11.0 0.00 0.00 0.00 55 1012.9
20260506161113 49 298 3.0 8.0 0.00 0.00 0.00 57 1013.0
20260506160613 49 163 3.0 10.0 0.00 0.00 0.00 56 1013.1
20260506160116 47 319 4.0 10.0 0.00 0.00 0.00 58 1013.1
20260506155613 48 321 3.0 10.0 0.00 0.00 0.00 59 1013.2
20260506155111 48 136 2.0 5.0 0.00 0.00 0.00 59 1013.2
20260506154841 48 149 2.0 5.0 0.00 0.00 0.00 62 1013.1
20260506154109 49 161 2.0 5.0 0.00 0.00 0.00 62 1013.1
20260506153610 48 300 3.0 6.0 0.00 0.00 0.00 61 1013.1
20260506153339 48 269 3.0 8.0 0.00 0.00 0.00 60 1013.0
20260506153222 48 300 2.0 8.0 0.00 0.00 0.00 61 1013.0
20260506152109 47 117 3.0 5.0 0.00 0.00 0.00 66 1013.0
20260506151607 47 125 3.0 5.0 0.00 0.00 0.00 68 1013.0
20260506151108 46 113 2.0 4.0 0.00 0.00 0.00 67 1013.0
20260506150605 46 117 1.0 3.0 0.00 0.00 0.00 66 1013.0
20260506150103 46 58 2.0 5.0 0.00 0.00 0.00 65 1013.0
20260506145601 46 11 2.0 6.0 0.00 0.00 0.00 65 1013.0
20260506145101 46 294 2.0 6.0 0.00 0.00 0.00 66 1012.9
20260506144601 47 286 2.0 4.0 0.00 0.00 0.00 64 1012.9
20260506144059 47 215 2.0 4.0 0.00 0.00 0.00 67 1012.9
20260506143552 46 302 1.0 4.0 0.00 0.00 0.00 68 1012.8
20260506143049 45 107 1.0 3.0 0.00 0.00 0.00 67 1012.8
20260506142550 45 101 1.0 3.0 0.00 0.00 0.00 67 1012.8
20260506142049 45 97 2.0 4.0 0.00 0.00 0.00 69 1012.7
20260506141549 45 100 3.0 6.0 0.00 0.00 0.00 70 1012.9
20260506141054 45 110 2.0 4.0 0.00 0.00 0.00 71 1012.9
20260506141049 45 103 2.0 6.0 0.00 0.00 0.00 70 1012.9
20260506140045 44 131 3.0 5.0 0.00 0.00 0.00 70 1012.8
20260506135547 45 146 3.0 6.0 0.00 0.00 0.00 71 1012.8
20260506135046 45 124 3.0 6.0 0.00 0.00 0.00 73 1012.7
20260506134546 44 106 3.0 6.0 0.00 0.00 0.00 72 1012.7
20260506134317 44 98 3.0 6.0 0.00 0.00 0.00 73 1012.8
20260506133817 44 98 4.0 8.0 0.00 0.00 0.00 74 1012.8
20260506133040 44 96 4.0 8.0 0.00 0.00 0.00 73 1012.7
20260506132541 44 69 3.0 7.0 0.00 0.00 0.00 75 1012.6
20260506132041 44 88 2.0 7.0 0.00 0.00 0.00 76 1012.7
20260506131540 43 76 2.0 4.0 0.00 0.00 0.00 78 1012.8
20260506131042 42 95 3.0 4.0 0.00 0.00 0.00 78 1012.7
20260506130541 42 99 2.0 7.0 0.00 0.00 0.00 79 1012.6
20260506130040 42 91 2.0 7.0 0.00 0.00 0.00 81 1012.6
20260506125542 41 41 2.0 4.0 0.00 0.00 0.00 82 1012.7
20260506125313 40 36 2.0 4.0 0.00 0.00 0.00 84 1012.6
20260506124541 40 43 1.0 4.0 0.00 0.00 0.00 85 1012.4
20260506124042 39 9 1.0 3.0 0.00 0.00 0.00 86 1012.4
20260506123541 37 0 2.0 3.0 0.00 0.00 0.00 87 1012.4
20260506123537 38 11 2.0 3.0 0.00 0.00 0.00 87 1012.3
20260506122537 37 342 2.0 4.0 0.00 0.00 0.00 87 1012.3
20260506122036 37 342 2.0 4.0 0.00 0.00 0.00 87 1012.3
20260506121537 37 341 2.0 4.0 0.00 0.00 0.00 87 1012.3
20260506121309 37 344 3.0 5.0 0.00 0.00 0.00 87 1012.2
20260506120531 37 5 2.0 5.0 0.00 0.00 0.00 88 1012.2
20260506120030 36 67 2.0 3.0 0.00 0.00 0.00 87 1012.1
20260506115532 36 98 1.0 2.0 0.00 0.00 0.00 88 1012.1
20260506115027 36 110 1.0 3.0 0.00 0.00 0.00 88 1012.1
20260506114528 36 101 1.0 3.0 0.00 0.00 0.00 88 1012.0
20260506114026 36 107 1.0 3.0 0.00 0.00 0.00 88 1012.0
20260506113527 36 99 1.0 3.0 0.00 0.00 0.00 88 1012.0
20260506113027 36 75 1.0 4.0 0.00 0.00 0.00 89 1012.1
20260506112527 36 76 2.0 4.0 0.00 0.00 0.00 89 1011.9
20260506112026 35 77 2.0 4.0 0.00 0.00 0.00 89 1011.9
20260506111523 36 77 2.0 4.0 0.00 0.00 0.00 90 1011.9
20260506111022 35 74 2.0 4.0 0.00 0.00 0.00 90 1011.8
20260506110524 35 36 1.0 3.0 0.00 0.00 0.00 90 1011.7
20260506110021 35 33 1.0 2.0 0.00 0.00 0.00 89 1011.7
20260506105519 35 32 0.0 2.0 0.00 0.00 0.00 89 1011.6
20260506105250 35 28 0.0 0.0 0.00 0.00 0.00 89 1011.5
20260506104521 35 34 0.0 1.0 0.00 0.00 0.00 89 1011.5
20260506104517 35 30 0.0 1.0 0.00 0.00 0.00 89 1011.4
20260506103516 34 34 0.0 0.0 0.00 0.00 0.00 88 1011.5
20260506103012 34 34 0.0 1.0 0.00 0.00 0.00 88 1011.5
20260506102510 34 34 0.0 1.0 0.00 0.00 0.00 88 1011.4
20260506102011 34 34 0.0 1.0 0.00 0.00 0.00 87 1011.5
20260506101508 34 34 1.0 2.0 0.00 0.00 0.00 87 1011.4
20260506101006 34 34 1.0 2.0 0.00 0.00 0.00 87 1011.4
20260506100508 35 34 0.0 1.0 0.00 0.00 0.00 87 1011.4
20260506100237 35 37 0.0 1.0 0.00 0.00 0.00 87 1011.4
20260506095503 35 37 0.0 2.0 0.00 0.00 0.00 87 1011.4
20260506095003 35 37 1.0 2.0 0.00 0.00 0.00 87 1011.4
20260506094457 35 44 1.0 3.0 0.00 0.00 0.00 87 1011.4
20260506094228 34 44 2.0 3.0 0.00 0.00 0.00 87 1011.3
20260506093727 34 43 2.0 3.0 0.00 0.00 0.00 87 1011.4